RAMSAT

Last updated on Wed Oct 12 2022 00:02:06 GMT+0000 (Coordinated Universal Time)

1 48850U 98067SL 22284.53922697 .13761768 12596-4 32350-3 0 9998 2 48850 51.6145 73.1420 0006787 287.2983 72.7303 16.45887280 75725

Satellite not in orbit